XE2WR-3 Weather Reports


time (UTC)temp
C
wind
direction
speed
KPH
gust
KPH
rain 1hr
cm
rain 24hr
cm
rain mn
cm
humidity
%
barometer
mb
20260505164523 27 60 6.4 12.9 0.00 0.00 0.00 66 1007.7
20260505163024 27 62 6.4 11.3 0.00 0.00 0.00 69 1007.7
20260505161521 27 65 4.8 8.0 0.00 0.00 0.00 68 1007.8
20260505153016 26 55 0.0 4.8 0.00 0.00 0.00 72 1007.9
20260505151515 27 67 0.0 3.2 0.00 0.00 0.00 71 1008.0
20260505124606 19 222 0.0 4.8 0.00 0.00 0.00 51 1008.2
20260505123057 19 213 3.2 4.8 0.00 0.00 0.00 54 1008.3
20260505121559 19 215 3.2 4.8 0.00 0.00 0.00 55 1008.1
20260505120056 19 243 0.0 1.6 0.00 0.00 0.00 52 1007.9
20260505114559 19 243 0.0 3.2 0.00 0.00 0.00 52 1007.9
20260505113105 19 248 0.0 0.0 0.00 0.00 0.00 50 1008.0
20260505111552 20 248 0.0 0.0 0.00 0.00 0.00 53 1007.9
20260505101552 19 250 1.6 4.8 0.00 0.00 0.00 60 1008.1
20260505100045 19 259 0.0 1.6 0.00 0.00 0.00 61 1008.2
20260505094544 19 259 0.0 1.6 0.00 0.00 0.00 63 1008.3
20260505093042 19 259 0.0 4.8 0.00 0.00 0.00 73 1008.4
20260505091545 20 222 0.0 0.0 0.00 0.00 0.00 73 1008.3
20260505090041 20 223 0.0 3.2 0.00 0.00 0.00 73 1008.3
20260505084538 20 222 1.6 3.2 0.00 0.00 0.00 74 1008.3
20260505083034 20 210 1.6 4.8 0.00 0.00 0.00 73 1008.3
20260505081532 20 236 0.0 3.2 0.00 0.00 0.00 69 1008.4
20260505080030 21 84 1.6 4.8 0.00 0.00 0.00 68 1008.5
20260505074530 21 75 3.2 9.7 0.00 0.00 0.00 69 1008.6
20260505073026 21 96 3.2 6.4 0.00 0.00 0.00 69 1008.8
20260505071531 21 76 1.6 3.2 0.00 0.00 0.00 70 1008.9
20260505070023 21 76 0.0 3.2 0.00 0.00 0.00 72 1009.1
20260505064519 21 83 3.2 8.0 0.00 0.00 0.00 72 1009.3
20260505063017 21 68 6.4 12.9 0.00 0.00 0.00 74 1009.4
20260505061517 21 60 6.4 14.5 0.00 0.00 0.00 77 1009.6
20260505060032 21 81 9.7 12.9 0.00 0.00 0.00 79 1009.8
20260505054512 22 107 8.0 12.9 0.00 0.00 0.00 80 1009.9
20260505053007 22 74 6.4 11.3 0.00 0.00 0.00 81 1010.1
20260505051516 22 89 6.4 12.9 0.00 0.00 0.00 81 1010.0
20260505041507 24 70 0.0 4.8 0.00 0.00 0.00 73 1010.1
20260505040005 23 69 0.0 3.2 0.00 0.00 0.00 73 1010.2
20260505034503 24 70 0.0 1.6 0.00 0.00 0.00 73 1010.2
20260505033003 25 69 1.6 4.8 0.00 0.00 0.00 71 1010.1
20260505031503 25 77 0.0 4.8 0.00 0.00 0.00 71 1010.0
20260505030002 25 79 3.2 6.4 0.00 0.00 0.00 70 1009.9
20260505024501 25 75 4.8 8.0 0.00 0.00 0.00 71 1009.8
20260505023105 25 74 1.6 4.8 0.00 0.00 0.00 71 1009.9
20260505021559 25 98 1.6 4.8 0.00 0.00 0.00 71 1009.7
20260505020059 25 69 6.4 11.3 0.00 0.00 0.00 70 1009.5
20260505014558 25 80 6.4 12.9 0.00 0.00 0.00 70 1009.4
20260505013125 25 91 3.2 9.7 0.00 0.00 0.00 70 1009.4
20260505011609 25 73 8.0 16.1 0.00 0.00 0.00 69 1009.4
20260505010110 25 82 4.8 12.9 0.00 0.00 0.00 68 1009.5
20260505004555 25 74 8.0 12.9 0.00 0.00 0.00 68 1009.5
20260505003103 26 68 4.8 14.5 0.00 0.00 0.00 67 1009.7
20260505001553 26 128 8.0 12.9 0.00 0.00 0.00 66 1009.7
20260505000100 26 75 8.0 16.1 0.00 0.00 0.00 66 1009.6
20260504234551 26 65 8.0 14.5 0.00 0.00 0.00 66 1009.6
20260504233100 26 60 8.0 17.7 0.00 0.00 0.00 65 1009.7
20260504231550 26 65 4.8 14.5 0.00 0.00 0.00 65 1009.7
20260504230051 26 60 11.3 17.7 0.00 0.00 0.00 65 1009.6
20260504224546 26 77 11.3 17.7 0.00 0.00 0.00 64 1009.7
20260504223054 26 63 9.7 19.3 0.00 0.00 0.00 64 1010.0
20260504221543 26 68 6.4 14.5 0.00 0.00 0.00 64 1010.0
20260504220045 26 69 6.4 12.9 0.00 0.00 0.00 64 1010.1
20260504214546 26 70 6.4 14.5 0.00 0.00 0.00 63 1010.4
20260504213041 26 54 6.4 14.5 0.00 0.00 0.00 64 1010.3
20260504211536 26 70 4.8 12.9 0.00 0.00 0.00 66 1010.9
20260504210032 25 78 9.7 16.1 0.00 0.00 0.00 65 1010.9
20260504204532 26 69 9.7 17.7 0.00 0.00 0.00 65 1011.0
20260504203035 26 29 4.8 16.1 0.00 0.00 0.00 65 1011.0
20260504201528 25 49 6.4 17.7 0.00 0.00 0.00 65 1011.2
20260504200026 25 72 9.7 22.5 0.00 0.00 0.00 65 1011.3
20260504194524 25 67 9.7 19.3 0.00 0.00 0.00 65 1011.4
20260504193024 25 62 4.8 14.5 0.00 0.00 0.00 65 1011.5
20260504191523 25 102 6.4 14.5 0.00 0.00 0.00 64 1011.6
20260504190016 25 71 9.7 14.5 0.00 0.00 0.00 65 1011.7
20260504184519 24 61 9.7 16.1 0.00 0.00 0.00 65 1011.7
20260504183013 24 92 8.0 14.5 0.00 0.00 0.00 65 1011.9
20260504181517 23 57 6.4 9.7 0.00 0.00 0.00 67 1012.0
20260504180007 23 117 9.7 11.3 0.00 0.00 0.00 66 1012.1
20260504174506 23 46 3.2 11.3 0.00 0.00 0.00 68 1012.3
20260504173005 23 60 6.4 12.9 0.00 0.00 0.00 66 1012.4
20260504171505 23 99 4.8 9.7 0.00 0.00 0.00 68 1012.8